Regional Weather Roundup
Issued by NWS Newport/Morehead, NC

Current Version | Previous Version | Graphics & Text | Print | Product List | Glossary On
Versions: 1 2 3 4 5 6 7 8 9 10 11 12 13 14 15 16 17 18 19 20 21 22 23 24 25 26 27 28 29 30 31 32 33 34 35 36 37 38 39 40 41 42 43 44 45 46 47 48 49 50
865 ASUS42 KMHX 231325 RWRMHX WEATHER ROUNDUP FOR EASTERN NORTH CAROLINA NATIONAL WEATHER SERVICE NEWPORT/MOREHEAD CITY NC 900 AM EDT FRI JUN 23 2017 NOTE: "FAIR" INDICATES FEW OR NO CLOUDS BELOW 12,000 FEET WITH NO SIGNIFICANT WEATHER AND/OR OBSTRUCTIONS TO VISIBILITY NCZ015>017-031-032-045>047-102-103-231400- NORTH COAST CITY SKY/WX TMP DP RH WIND PRES REMARKS EDENTON PTSUNNY 81 75 84 SW10 30.01S ELIZABETH CITY PTSUNNY 79 77 94 SW10 29.99F KITTY HAWK CLOUDY 80 73 81 CALM 30.00S MANTEO CLOUDY 79 74 85 W13 30.01F $$ NCZ045>047-081-094-103-104-231400- CENTRAL COAST CITY SKY/WX TMP DP RH WIND PRES REMARKS FRISCO CLOUDY 80 76 87 SW9 30.04R $$ NCZ095-097-098-100-101-231400- SOUTHERN COAST CITY SKY/WX TMP DP RH WIND PRES REMARKS BEAUFORT CLOUDY 82 79 90 SW15 30.04S CEDAR ISLAND NOT AVBL JACKSONVILLE CLOUDY 80 78 94 SW10 30.03S PINEY ISLAND CLOUDY N/A N/A N/A SW13 30.04R WILMINGTON CLOUDY 82 77 84 SW14 30.05R $$ NCZ011>013-027>030-043-044-078>080-089-090>093-098-231400- COASTAL PLAIN CITY SKY/WX TMP DP RH WIND PRES REMARKS AHOSKIE N/A 76 75 94 S3 29.99F CLINTON CLOUDY 78 77 98 SW3 30.04R ELIZABETHTOWN NOT AVBL GOLDSBORO CLOUDY 79 79 100 SW8 30.00F GREENVILLE CLOUDY 81 77 89 SW6 30.03S HAVELOCK CLOUDY 81 76 84 SW9 30.04S KENANSVILLE CLOUDY 79 75 89 SW6 30.04S KINSTON CLOUDY 79 75 89 SW9 30.03S NEW BERN CLOUDY 80 77 90 SW8 30.04S RICHLANDS CLOUDY 80 77 90 SW8 30.04S ROCKY MOUNT CLOUDY 76 76 100 S9 30.00F WASHINGTON CLOUDY 79 75 86 SW10 30.02F WHITEVILLE CLOUDY 81 75 82 SW7 30.04S $$ AMZ130-135-150-152-154-156-158-170-250-252-270-ANZ085-086-088-633-658-670-231400- MARINE OBSERVATIONS STATION/POSITION TIME TEMP WIND PRES WAVE SWELL AIR SEA DIR/SP/G HT/PER HT/PER (UTC) (F) (DEG/KT/KT) (MB) (FT/S) (FT/S) CHESAPEAKE LIGHT NOT AVBL 64 E VA BEACH 1250 73 72 230/ 8/ 8 1015.8 3/ 8 3/ 8 DUCK 1300 78 63 230/ 10/ 14 1015.5 2 E DUCK NOT AVBL OREGON INLET 1300 79 78 220/ 12/ 14 1016.2 13E OREGON INLT 1248 72 N/A 3/ 8 2/ 8 HATTERAS CG 1300 79 79 240/ 7/ 10 1016.8 DIAMOND BUOY 1250 80 80 240/ 14/ 16 1017.0 3/ 8 2/ 8 CAPE LOOKOUT 1300 81 240/ 8/ 11 1016.9 BEAUFORT LAB 1300 81 77 230/ 4/ 12 1016.7 30 SE NEW RVR IN 1308 80 80 240/ 14/ 17 1017.6 30 SE NEW RVR IN 1243 80 N/A 3/ 9 27 SE WRIGHTSVLE 1308 79 80 220/ 12/ 16 1017.5 5 SE WRIGHTSVLE 1308 80 79 240/ 8/ 14 1017.4 225 S CAPE HAT 1250 80 81 220/ 10/ 14 1019.5 4/ 9 3/ 9 41 SE CHARLESTON 1300 81 81 220/ 14/ 16 1018.0 $$

USA.gov is the U.S. government's official web portal to all federal, state and local government web resources and services.